Flag for Switzerland Weather past 2 weeks in Grenchen, Solothurn, Switzerland

Now
51 °F

Cool.


Feels Like: 45 °F
Forecast: 39 / 45 °F
Wind: 20 mph from West

Location: Grenchen

Current Time: Oct 22, 2014 at 12:19:14 AM

Latest Report: Oct 21, 2014 at 11:00 PM


Visibility: N/A

Pressure: 30.11 "Hg

Humidity: 61%

Dew point: 38 °F

Location of GrenchenLocation

Historic Weather in Grenchen — Graph

°F

Grenchen temperature yesterday

Maximum temperature yesterday: 67 °F (at 2:00 PM)
Minimum temperature yesterday: 51 °F (at 9:00 PM)
Average temperature yesterday: 60 °F

Past Weeks' High & Low Weather Summary

 TemperatureHumidityPressure
High71 °F (Oct 9, 3:00 PM)100% (Oct 7, 5:00 AM)30.30 "Hg (Oct 7, 5:00 AM)
Low47 °F (Oct 19, 3:00 AM)51% (Oct 21, 3:00 PM)29.78 "Hg (Oct 15, 5:00 PM)
Average58 °F91%29.97 "Hg
* Reported Oct 6 10:00 PM — Oct 21 10:00 PM, Grenchen, Weather by CustomWeather, © 2014

Note: Actual official high and low records may vary slightly from our data, if they occured in-between our weather recording intervals... More about our weather records

Advertising

Grenchen weather history for previous 24 hours

 ConditionsComfort  
Time TempWeatherWind HumidityBarometerVisibility
10:00 PM
Oct 21
52 °FCool.16 mph62%30.04 "HgN/A
9:00 PM51 °FCool.38 mph68%29.92 "HgN/A
8:00 PM56 °FCool.38 mph68%29.88 "HgN/A
7:00 PM61 °FCool.23 mph72%29.80 "HgN/A
6:00 PM58 °FCool.7 mph90%29.83 "HgN/A
5:00 PM61 °FCool.15 mph74%29.85 "HgN/A
4:00 PM64 °FMild.22 mph60%29.88 "HgN/A
3:00 PM66 °FMild.23 mph51%29.89 "HgN/A
2:00 PM67 °FMild.26 mph52%29.91 "HgN/A
1:00 PM65 °FMild.20 mph63%29.94 "HgN/A
12:00 PM65 °FMild.20 mph74%29.96 "HgN/A
11:00 AM64 °FMild.9 mph85%29.98 "HgN/A
10:00 AM61 °FCool.10 mph90%30.01 "HgN/A
9:00 AM58 °FCool.6 mph99%30.01 "HgN/A
8:00 AM58 °FCool.6 mph99%30.00 "HgN/A
7:00 AM59 °FCool.6 mph98%30.01 "HgN/A
6:00 AM58 °FCool.2 mph98%30.01 "HgN/A
5:00 AM58 °FCool.1 mph95%30.02 "HgN/A
4:00 AM59 °FCool.5 mph91%30.03 "HgN/A
3:00 AM59 °FCool.2 mph100%30.04 "HgN/A
2:00 AM59 °FCool.3 mph100%30.06 "HgN/A
1:00 AM60 °FCool.2 mph98%30.06 "HgN/A
12:00 AM60 °FCool.7 mph96%30.06 "HgN/A
Weather by CustomWeather, © 2014

See weather overviewHow to use our weather pages